Location: Mapua
(41.2500°S, 173.1000°E)
Time: 22:16:55
(UTC+12:00)

ISS - Visible Passes

Search period start: 26 May 2018 00:00
Search period end: 05 June 2018 00:00
Orbit: 402 x 407 km, 51.6° (Epoch: 26 May)

Date Brightness Start Highest point End Pass type
(mag) Time Alt. Az. Time Alt. Az. Time Alt. Az.
27 May -1.0 06:17:25 10° N 06:19:55 20° NE 06:22:27 10° E visible
28 May -0.4 05:27:14 10° NE 05:27:57 11° NE 05:28:40 10° ENE visible
28 May -3.8 07:00:37 10° NW 07:03:57 88° SSW 07:07:19 10° SE visible
29 May -2.8 06:08:56 13° NNW 06:11:46 48° NE 06:15:01 10° ESE visible
30 May -1.6 05:19:57 25° NE 05:19:57 25° NE 05:22:28 10° ESE visible
30 May -3.2 06:52:50 10° W 06:56:01 40° SSW 06:59:14 10° SE visible
31 May -3.9 06:03:19 62° W 06:03:42 71° SW 06:07:04 10° SE visible
01 Jun -1.1 05:13:44 19° ESE 05:13:44 19° ESE 05:14:47 10° ESE visible
01 Jun -2.4 06:46:25 16° WSW 06:48:11 24° SSW 06:51:00 10° SE visible
02 Jun -2.4 05:56:38 29° S 05:56:38 29° S 05:58:52 10° SE visible
03 Jun -1.9 06:39:23 15° SW 06:40:24 17° SSW 06:42:44 10° SSE visible
04 Jun -1.5 05:49:21 16° SSE 05:49:21 16° SSE 05:50:34 10° SE visible
